Hourly Data Report for October 07, 2013

All times are specified in Local Standard Time (LST). Add 1 hour to adjust for Daylight Saving Time where and when it is observed.

HALL BEACH A
NUNAVUT

68°46'33.000" N
81°14'33.000" W
9.10 m
2402354
71293
YUX

Download Data

Hourly Data (October 2013)
Hourly Data Report for October 7, 2013
Temp Definition
°C
Dew Point Temp Definition
°C
Rel Hum Definition
%
Wind Dir Definition
10's deg

Wind Spd Definition
km/h
Visibility Definition
km
Stn Press Definition
kPa
Hmdx Definition


Wind Chill Definition


Weather Definition


TIME
00:00 Legend Double Dagger -3.4 -7.0 77 18 11 16.1 102.06   -8 LegendNANA
01:00 Legend Double Dagger -3.5 -6.6 79 18 5 16.1 102.07   -6 LegendNANA
02:00 Legend Double Dagger -3.4 -6.6 79 20 9 16.1 102.06   -7 LegendNANA
03:00 Legend Double Dagger -3.4 -6.0 82 16 4 16.1 102.04   -5 LegendNANA
04:00 Legend Double Dagger -3.4 -5.4 86 12 8 16.1 102.01   -7 LegendNANA
05:00 Legend Double Dagger -3.5 -4.8 91 11 5 16.1 101.99   -6 LegendNANA
06:00 Legend Double Dagger -3.3 -5.5 85 11 9 16.1 101.98   -7 LegendNANA
07:00 Legend Double Dagger -3.2 -5.9 82 14 11 16.1 101.96   -7 LegendNANA
08:00 Legend Double Dagger -3.3 -6.3 80 11 9 16.1 101.95   -7 LegendNANA
09:00 Legend Double Dagger -3.2 -5.6 84 13 8 16.1 101.94   -6 LegendNANA
10:00 Legend Double Dagger -3.3 -5.5 85 14 15 16.1 101.90   -8 LegendNANA
11:00 Legend Double Dagger -3.0 -6.3 78 14 9 16.1 101.89   -7 LegendNANA
12:00 Legend Double Dagger -3.0 -5.8 81 12 11 16.1 101.88   -7 LegendNANA
13:00 Legend Double Dagger -3.1 -5.4 84 10 11 16.1 101.87   -7 LegendNANA
14:00 Legend Double Dagger -2.9 -6.3 78 12 11 16.1 101.84   -7 LegendNANA
15:00 Legend Double Dagger -3.1 -6.6 77 12 11 16.1 101.81   -7 LegendNANA
16:00 Legend Double Dagger -3.3 -5.0 88 6 13 16.1 101.80   -8 LegendNANA
17:00 Legend Double Dagger -3.3 -5.5 85 9 11 16.1 101.78   -8 LegendNANA
18:00 Legend Double Dagger -3.7 -5.3 89 4 13 16.1 101.77   -9 LegendNANA
19:00 Legend Double Dagger -3.4 -4.8 90 9 18 16.1 101.74   -9 LegendNANA
20:00 Legend Double Dagger -4.1 -6.0 87 8 22 16.1 101.72   -11 LegendNANA
21:00 Legend Double Dagger -4.2 -6.7 83 9 21 16.1 101.72   -11 LegendNANA
22:00 Legend Double Dagger -4.2 -7.4 78 8 21 16.1 101.69   -11 LegendNANA
23:00 Legend Double Dagger -4.2 -8.0 75 4 24 16.1 101.66   -11 LegendNANA

Notes on Data Quality.

Legend

  • E = Estimated
  • M = Missing
  • NA = Not Available
  • ‡ = Partner data that is not subject to review by the National Climate Archives
Date modified: